User: anonymous   Login
Location: Unspecified
(0.0000°N, 0.0000°E)
Time: 12:53:01
(UTC+00:00)
Language:

WGS 10 (USA 291) - Orbit

View from above orbital plane
View from above orbital plane
View from above satellite
View from above satellite

Ground track
Ground track

The orbit is defined by the following mean orbital elements,

1 44071U          26145.66699369 +.00000000 +00000-0 +00000-0 0 00001
2 44071   0.0166 343.5190 0000489  34.9608 165.1869  1.00272154    05
Epoch (UTC): 25 May 2026 16:00:28
Eccentricity: 0.0000489
inclination: 0.0166°
perigee height: 35784 km
apogee height: 35789 km
right ascension of ascending node: 343.5190°
argument of perigee: 34.9608°
revolutions per day: 1.00272154
mean anomaly at epoch: 165.1869°

The dashed part of the orbit path shows where the satellite is in the earth's shadow,  

DLR